If you wish to contribute or participate in the discussions about articles you are invited to join SKYbrary as a registered user

 Actions

Quimper-Cornouaille Airport

From SKYbrary Wiki

LFRQ
Airport
ICAO: LFRQ – IATA: UIP
Summary
Name Quimper-Cornouaille Airport
Region Europe
Territory France FR.gif
Location , Bretagne
Serving Quimper
Elevation 90.526 m
297 ft
297 ft90.526 m
Type medium airport
Coordinates 47° 58' 29.93" N, 4° 10' 4.03" W
Runways
Designator Length Width Surface ROPS
4/22 810 m2,657.48 ft
45 m147.638 ft
ASP /
10/28 2150 m7,053.806 ft
45 m147.638 ft
ASP yes/yes


METAR
Observation LFRQ 170200Z AUTO 22010KT 180V260 9999 FEW010/// BKN014/// BKN025/// ///CB 12/11 Q1008
Station Quimper
Date/Time 17 October 2019 02:00:00
Wind direction 220°
Wind speed 10 kts
Lowest cloud amount few clouds
Temperature 12°C
Dew point 11°C
Humidity 93%
QNH 1008 hPa
Weather condition n/a